Showing default

COSMOS 1694, 16142

Orbit data source: Space-Track

COSMOS 1694, 16142 is a payload satellite owned by GUKOS (CIS) in LEO that was launched on Wed, 09 Oct 1985 UTC via a TSIKLON-3 launch vehicle from the Plesetsk Missile And Space Complex (PKMTR). Payload-class satellites include a variety of spacecraft equipped with specific instruments for various scientific and technological missions. These include communications satellites like Starlink; space stations such as the ISS; scientific satellites like the Hubble; Earth observation satellites from companies like Planet Labs, Umbra, and HawkEye 360; GPS; miniature CubeSats for education and research; and military/defense satellites.

Loading next visibility...
Identifier
16142, 1985-094E
Orbit
LEO
Country
Flag of CISCIS
Related business
Manufacturer
NPO PM
Mission
Spacecraft
Bus & Motor
STRELA-3, Unknown motor
Mass
225 kg wet, 225 kg dry
Launch date (UTC)
1985-10-09 (40 years ago)
Launch vehicle
TSIKLON-3
Launch site
Plesetsk Missile And Space Complex (PKMTR)
Object type
Payload
Rocket body
Debris
Shape & HBR
Unknown
Radar Cross Section
Medium (>0.1 m² and <1 m²)

Expand to show TLE details & history
Last TLE update: 17 hours ago

TLE from 17 hours ago
0 COSMOS 1694
1 16142U 85094E   26036.84950939  .00000008  00000-0 -12945-4 0  9998
2 16142  82.6128 345.9264 0011678  11.8140  17.5314 12.63683890860072
Epoch: 2026-02-05T20:23Z
TLE epoch observation values (Epoch: 2026-02-05T20:23:17.611Z)
Latitude
29.1621°
Longitude
-91.76459°
Altitude
1,402.593 km
Speed
7.165 km/s
True Right ascension
23h 20m 13s
True Declination
29° 01' 41"
Sunlit
Object was in daylight at epoch
Visualization orbit readout
Latitude
Unknown
Longitude
Unknown
Altitude
Unknown
Speed
Unknown
Apparent Right ascension
Unknown
Apparent Declination
Unknown
Sunlit
N/A
Visualization observer readout
Local Sidereal Time
15:22:41
Azimuth
Unknown
Elevation
Unknown
Doppler factor
Unknown
Orbital elements
Apogee altitude
1,414.183 km
Perigee altitude
1,396.004 km
Semi-major axis
7,783.23 km
Eccentricity
0.00117
Inclination
82.6128°
RAAN
345.9264°
Arg. of periapsis
11.814°
True anomaly
17.57177°
Mean anomaly
17.5314°
Eccentric anomaly
17.55158°
Mean motion
3.16085 °/min
Orbital period
113.89 mins
BSTAR
-0.000012945
Loading maneuver chart data...
Computing Atmospheric mass density...
Loading historical data...
Loading historical data...
Loading historical data...
Loading historical data...
Loading historical data...
Loading historical data...
Loading historical data...

Documentation

Showing up to 5 results
|